Terminal Aerodrome Forecast
Issued by NWS Melbourne, FL

Home | Current Version | Previous Version | Text Only | Print | Product List | Glossary On
Versions: 1 2 3 4 5 6 7 8 9 10 11 12 13 14 15 16 17 18 19 20 21 22 23 24
000
FTUS42 KMLB 171500 AAA
TAFMCO
TAF AMD
KMCO 171503Z 1715/1812 27008KT P6SM BKN080
     FM171800 28012KT P6SM VCTS SCT030CB BKN060
     FM180000 29004KT P6SM VCSH BKN040 OVC080=

USA.gov is the U.S. government's official web portal to all federal, state and local government web resources and services.